Temp
18 18 17 18 19 19 19 20 20 20 20 21 21 22 21 21 22 22 22 20 20 22 19 17 20 21 21 20 18 18 19 19 19 19 20 18 17 18 18 18 19 19 19 18 18 17 17 17 17 17 17 17 17 17 17 17 17 17 17 17 17 17 18 18 17 17 17 17 17 18 18 18 18 18 17 18 18 18 18 18 18 18 18 17 17 17
17 18 18 18 18 19 18 19 20 19 20 21 21 22 21 21 22 21 21 19 20 22 19 18 20 19 19 19 18 18 19 19 19 20 19 17 18 18 18 18 19 18 18 18 18 17 17 17 17 17 17 17 17 17 17 17 17 17 17 17 17 17 17 17 17 17 17 18 18 18 17 17 17 17 17 17 17 17 17 17 17 17 17 17 17 17
17 17 17 18 18 18 18 19 21 20 20 20 21 21 21 21 21 21 21 19 20 22 20 19 20 19 18 19 18 18 19 19 19 20 19 18 18 18 17 18 18 18 18 18 18 17 17 17 17 17 17 17 17 16 17 17 17 17 17 17 17 17 17 17 17 17 18 18 18 18 17 17 17 17 17 17 17 17 17 17 17 17 17 17 17 17
16 17 17 17 17 18 18 19 20 20 20 20 20 21 21 20 20 21 21 19 19 21 20 20 20 19 19 18 18 18 18 18 19 19 18 17 18 17 17 17 17 18 18 18 18 17 17 17 17 16 16 16 16 16 16 17 17 17 17 17 17 17 17 17 17 17 18 18 18 18 17 17 17 17 17 17 17 17 17 17 17 17 17 17 17 17
17 17 17 16 18 19 18 18 19 20 20 20 20 21 21 20 20 20 20 19 20 20 21 21 21 19 20 19 18 18 18 18 19 18 17 17 17 16 17 17 17 17 18 18 17 17 16 16 16 16 16 16 15 15 15 16 16 17 17 17 17 17 17 17 17 17 18 18 17 17 17 17 17 16 16 16 16 16 16 16 16 17 17 17 17 17
17 17 16 17 18 19 18 18 19 20 20 19 19 20 21 21 21 20 19 20 21 21 20 21 21 20 19 20 18 17 18 18 18 17 17 17 17 16 16 17 17 17 17 17 16 16 16 15 15 15 15 15 14 14 14 15 15 16 17 17 17 17 17 17 17 17 17 17 17 17 17 16 16 15 15 15 15 15 15 15 16 16 16 16 16 16
17 16 17 18 18 18 19 18 18 20 20 19 20 20 20 21 21 20 20 21 21 20 20 20 21 20 19 20 19 18 19 18 17 17 16 16 16 17 16 16 17 16 16 16 15 15 15 15 15 14 14 15 14 14 14 14 15 16 16 16 16 16 16 17 17 17 17 17 17 17 17 16 15 15 14 14 14 15 15 15 16 16 16 16 16 16
16 16 17 18 18 18 19 19 18 19 20 20 20 20 20 20 21 21 21 21 21 20 20 20 21 20 19 20 19 18 19 18 17 17 17 17 17 17 16 16 17 16 15 16 15 15 15 15 14 14 14 14 14 14 15 15 15 16 16 16 16 16 16 16 16 17 17 17 16 16 16 15 15 15 14 14 15 15 15 15 15 15 15 15 15 15
16 16 17 18 18 18 19 19 18 19 21 20 19 19 20 21 21 22 22 21 20 20 20 20 21 20 20 19 18 18 19 18 17 17 17 18 17 17 17 16 16 16 16 16 15 15 15 14 14 14 14 14 14 15 15 15 15 15 15 15 15 15 15 15 16 16 16 16 16 16 15 14 14 15 15 15 15 15 15 15 14 14 14 15 15 15
17 17 18 18 19 19 19 19 18 20 21 20 18 19 20 20 20 21 21 21 20 20 20 20 20 21 20 19 18 18 19 19 18 17 18 18 18 17 16 16 16 16 16 15 14 15 14 14 14 14 14 14 14 15 15 15 15 15 15 15 15 15 14 14 15 15 15 15 15 15 15 14 14 14 14 14 14 14 14 14 14 13 13 13 14 14
17 18 18 18 19 19 19 18 18 20 20 18 19 20 20 20 20 20 20 20 20 20 20 20 21 21 20 19 18 19 20 20 19 17 18 18 18 17 17 16 16 15 15 14 14 14 14 14 14 13 13 13 14 14 15 14 14 14 14 14 14 14 13 14 14 14 14 14 14 14 14 14 13 13 13 13 13 13 13 13 13 12 12 12 13 13
17 17 17 18 18 19 19 18 18 19 19 19 21 21 20 20 20 20 20 19 20 20 20 19 20 20 20 20 19 20 21 21 20 18 17 17 17 17 17 16 15 15 14 14 13 13 14 14 13 13 13 13 14 14 14 14 14 14 13 13 13 12 13 13 13 13 13 13 13 12 12 13 12 12 12 12 12 12 12 12 12 12 12 12 12 13
17 17 17 18 18 19 19 18 18 18 19 21 21 20 20 20 19 19 20 20 20 20 18 18 19 20 20 19 19 19 20 21 20 19 18 18 17 17 16 15 14 14 14 13 13 13 14 14 13 13 13 13 13 14 14 14 14 13 13 12 12 12 12 12 12 12 12 12 12 11 11 12 12 12 11 11 10 11 11 11 11 11 11 11 11 11
17 17 17 18 18 20 20 19 18 18 19 21 21 21 20 19 18 18 19 19 19 20 18 17 19 20 20 19 17 18 19 20 20 19 18 18 17 16 14 13 13 13 13 13 13 13 13 13 13 13 13 13 13 13 13 13 13 13 12 12 12 11 12 12 12 12 12 11 11 11 11 11 11 11 11 10 10 10 10 10 10 10 10 10 9 9
16 16 17 18 18 19 20 20 20 19 19 20 21 21 21 20 19 19 19 20 19 19 18 18 19 19 20 18 16 17 18 20 20 18 17 17 16 14 13 13 14 13 13 13 13 13 13 13 13 12 12 12 12 13 13 13 12 12 12 12 12 11 11 12 11 11 11 11 11 11 11 11 10 10 10 10 9 9 9 9 9 9 9 9 9 8
17 17 17 19 18 19 20 20 20 20 19 19 20 21 20 21 20 18 18 18 19 20 19 18 18 17 18 17 16 17 18 18 18 16 15 15 14 14 14 14 14 13 13 13 13 13 13 13 12 12 12 12 12 12 12 12 12 12 12 12 11 11 11 11 11 11 11 10 10 10 10 10 10 9 9 9 9 8 8 8 8 8 8 8 8 8
17 17 17 17 18 19 20 19 20 20 20 18 19 20 20 20 21 19 17 16 17 20 19 17 17 16 17 17 16 16 17 17 16 15 14 14 14 14 14 14 14 14 13 13 13 13 13 12 12 12 12 12 12 12 12 12 12 12 12 12 11 11 11 11 11 10 10 10 10 9 9 9 9 9 9 9 9 8 8 8 8 8 8 7 7 7
17 17 17 17 18 19 20 20 20 21 20 19 19 20 20 20 20 20 19 17 18 20 18 16 17 17 18 18 16 16 16 16 15 15 14 14 14 14 14 14 14 14 14 13 13 13 12 12 12 12 12 12 12 12 11 12 12 12 12 12 11 11 11 10 10 10 10 10 9 9 8 9 9 9 9 9 9 8 8 8 7 7 7 7 7 7
17 18 17 18 19 19 19 20 20 19 20 20 21 21 20 20 20 19 19 19 19 20 18 16 16 17 19 18 17 17 16 16 15 15 14 14 15 15 14 14 14 13 13 13 13 13 12 12 12 12 11 11 11 11 11 12 12 12 11 11 11 11 10 10 10 10 10 9 9 8 8 8 8 8 8 8 8 8 8 7 7 6 6 6 6 6
17 18 17 18 19 19 19 19 19 19 19 20 21 21 20 20 20 20 19 20 20 20 19 17 16 17 19 19 17 17 17 16 16 15 14 15 15 15 14 14 14 13 13 13 13 13 13 13 12 11 11 11 11 11 11 11 11 11 11 11 10 10 10 10 10 9 9 9 8 8 8 8 8 8 8 8 8 8 7 7 6 6 6 6 6 6
17 17 18 17 17 18 19 19 20 20 19 20 20 20 20 19 20 20 19 19 20 20 19 18 18 18 19 18 18 19 18 17 16 15 15 15 15 14 14 13 13 13 13 13 13 13 13 12 12 11 11 11 11 11 11 11 11 10 10 10 10 10 10 9 9 9 9 8 8 8 8 7 7 7 7 7 7 7 6 6 5 5 5 5 5 5
17 17 17 17 17 18 19 19 20 21 20 20 20 20 20 20 20 20 19 18 19 19 18 19 20 20 18 16 18 19 19 17 16 15 15 15 14 14 13 13 13 13 13 13 13 13 13 12 11 11 11 11 11 11 10 10 10 10 10 10 10 9 9 9 9 8 8 8 8 7 7 7 7 6 6 6 6 6 6 5 5 5 5 5 5 5
17 17 18 17 17 18 19 18 19 21 21 21 21 21 21 21 21 20 20 18 18 18 18 18 20 19 16 15 17 19 18 17 16 15 14 14 14 13 13 13 13 13 13 13 13 13 12 12 11 11 11 11 11 10 10 10 10 9 9 9 9 9 9 8 8 8 8 8 7 7 7 7 6 6 6 6 6 5 5 5 5 5 5 5 5 5
16 17 18 17 17 18 19 18 18 20 20 20 21 21 20 21 21 21 20 19 19 19 18 19 20 19 16 15 17 18 17 16 16 15 14 13 13 13 12 12 12 12 12 12 12 12 12 11 11 11 11 11 11 10 10 9 9 9 9 9 9 9 8 8 8 8 8 7 7 7 7 6 6 6 6 5 5 5 5 5 5 5 5 5 5 5
17 17 17 17 17 17 18 18 18 18 19 20 20 20 20 21 20 20 19 19 20 20 19 20 20 18 15 15 17 17 16 15 15 15 14 13 12 12 12 12 12 11 11 11 11 11 11 11 11 11 10 10 10 10 9 9 9 9 9 9 9 8 8 8 8 8 8 7 7 7 7 6 6 6 6 5 5 5 5 5 5 5 5 5 5 5
17 16 17 18 17 16 17 18 17 18 18 19 19 19 20 20 20 20 19 19 19 19 19 21 20 16 14 15 16 16 15 14 14 14 14 13 12 12 11 11 11 11 11 10 10 10 11 11 10 10 10 10 10 9 9 9 9 9 9 9 9 8 8 8 8 8 7 7 7 7 7 6 6 6 6 5 5 5 5 5 5 5 5 5 5 5
17 16 17 18 18 17 18 18 16 17 18 19 19 19 19 20 20 21 20 20 19 18 19 20 19 16 14 15 16 15 14 14 13 13 13 12 12 12 11 11 11 11 11 10 10 10 10 10 10 10 10 10 10 9 9 9 9 9 9 8 8 8 8 8 8 7 7 7 6 6 6 6 6 6 5 5 5 5 5 5 5 5 4 5 5 4
18 17 16 17 17 15 16 15 14 16 18 19 19 19 19 19 20 20 20 20 19 19 19 18 17 17 16 15 15 15 14 14 13 13 13 12 12 12 11 11 11 11 10 10 10 9 9 9 9 9 9 9 9 9 9 9 9 9 8 8 8 8 8 8 8 7 7 6 6 6 6 6 6 5 5 5 5 5 5 5 5 4 4 4 4 4
19 18 16 16 15 13 13 13 13 15 17 17 19 20 19 19 19 19 20 20 20 21 21 18 16 19 18 15 15 15 15 14 13 13 13 12 12 12 11 11 11 10 10 10 10 9 9 9 9 9 9 9 9 9 9 9 9 8 8 8 8 8 8 8 7 7 6 6 6 6 6 6 6 6 5 5 5 5 5 5 4 4 4 4 4 4
18 18 15 15 16 14 13 13 13 14 15 16 16 16 17 18 19 19 20 19 19 20 20 18 17 19 18 16 16 16 15 14 13 12 12 12 12 11 11 11 10 10 10 10 10 9 9 9 9 9 9 9 9 9 9 9 8 8 8 8 7 7 7 7 7 6 6 6 5 5 6 6 6 6 5 5 5 5 5 5 4 4 4 4 4 4
18 17 15 16 17 16 14 14 13 14 16 16 14 12 14 16 17 18 18 16 17 18 17 16 17 17 16 16 16 15 14 13 12 12 12 12 12 11 11 11 11 10 10 10 9 9 9 9 9 9 9 9 9 9 9 8 8 8 7 7 7 7 7 7 7 6 6 5 5 6 6 6 6 6 5 5 5 5 5 4 4 4 4 4 4 3
17 15 14 17 18 16 15 14 14 14 16 16 15 13 14 15 16 16 15 14 16 18 15 15 17 17 16 16 15 14 13 13 12 12 12 12 12 12 11 11 11 11 10 10 9 9 9 10 10 9 9 8 8 8 8 8 8 7 7 7 7 6 7 7 6 5 5 5 5 6 6 6 6 5 5 5 5 5 4 4 4 4 4 3 3 3
17 16 15 17 18 17 15 14 14 15 17 18 16 14 14 14 14 14 14 13 15 17 16 17 18 17 15 15 14 13 13 13 12 12 12 12 12 12 12 12 11 11 10 10 9 9 10 10 9 9 8 8 8 8 8 8 7 7 7 7 6 6 6 6 6 5 5 5 6 6 6 6 6 5 5 5 5 5 4 4 4 4 4 3 3 3
17 18 16 16 18 17 15 14 15 17 18 17 13 11 11 13 13 15 15 13 14 15 14 15 16 16 15 15 14 13 14 13 13 13 13 13 12 12 12 12 11 10 10 10 10 10 10 10 9 8 8 7 7 7 7 7 7 7 7 6 6 6 6 6 6 5 5 6 6 6 6 6 6 5 5 5 5 5 5 4 4 4 4 3 3 3
17 18 15 15 17 16 14 15 17 18 17 14 10 9 10 11 12 14 13 12 12 13 11 12 14 15 15 15 14 14 14 14 14 13 13 13 13 12 12 12 11 10 9 9 10 10 10 9 8 8 7 7 7 7 7 7 7 7 6 6 5 6 6 6 6 6 6 6 6 6 6 6 6 5 5 5 5 5 4 4 4 4 4 3 3 3
17 17 15 14 15 15 15 16 17 17 14 11 10 10 10 10 11 14 15 14 12 12 12 13 14 15 15 15 14 14 14 14 13 13 13 13 13 13 12 11 10 10 10 10 10 10 9 8 8 8 7 7 7 7 7 6 6 6 6 6 6 6 6 6 6 6 6 6 6 6 6 6 6 5 5 5 5 5 4 4 4 4 4 3 3 3
17 17 16 15 13 14 16 16 16 17 15 14 14 12 11 12 13 15 19 17 13 12 13 13 14 14 15 14 14 13 13 12 12 12 12 13 13 13 13 12 11 10 10 10 10 9 8 8 8 8 7 7 7 7 7 6 7 6 6 6 6 6 6 6 6 6 6 6 6 6 6 6 6 5 5 5 5 5 4 4 4 4 4 4 3 3
17 17 18 17 14 13 16 16 16 17 17 18 17 14 12 13 13 15 19 18 14 12 13 14 13 14 14 13 13 13 12 12 12 11 12 13 13 13 12 11 11 10 10 10 9 8 8 8 7 7 7 7 6 7 7 7 7 7 6 6 6 6 6 6 6 6 6 6 6 6 6 6 6 5 5 5 5 5 4 4 4 4 4 4 3 3
16 16 17 18 14 13 16 17 16 17 18 19 17 14 12 12 12 14 19 19 15 12 13 14 13 14 14 13 12 12 12 12 12 12 12 13 12 12 11 11 10 10 9 9 9 8 8 7 7 7 7 6 6 7 7 7 7 7 6 6 6 6 6 6 6 6 6 6 6 6 6 6 6 6 5 5 5 5 5 5 5 4 4 4 4 3
16 16 16 17 15 15 17 18 16 17 18 17 14 13 12 12 13 16 20 20 15 12 13 14 14 14 14 13 12 13 13 13 13 13 12 12 11 11 10 10 10 9 9 8 8 8 8 7 7 7 7 6 7 7 7 7 7 7 7 7 7 7 6 6 6 6 6 6 6 6 6 6 6 6 5 5 5 5 5 5 5 5 5 4 4 4
15 15 15 16 16 16 16 17 17 17 17 14 12 12 12 13 15 19 20 18 14 12 13 14 14 14 14 13 13 14 13 13 13 12 11 11 10 10 10 10 9 9 9 8 8 8 7 7 7 7 7 7 7 7 8 8 7 7 7 7 7 7 6 7 7 6 6 6 6 6 6 6 6 6 5 5 5 5 5 5 5 5 5 4 4 4
15 15 14 15 16 15 15 17 17 17 16 13 12 12 12 15 19 19 15 12 11 12 14 14 14 14 14 13 13 12 11 11 11 11 10 10 10 10 10 9 9 8 8 8 8 7 7 7 7 7 7 7 7 7 7 7 7 7 7 7 7 7 7 7 7 6 6 6 6 6 6 6 6 6 6 5 5 5 5 5 5 5 5 5 4 4
15 16 15 15 14 14 15 16 17 17 15 13 13 14 14 16 18 15 11 10 12 13 13 14 14 14 14 13 11 10 10 10 10 10 10 10 10 10 10 9 8 8 7 7 7 7 7 7 7 7 7 7 8 8 8 7 7 7 7 7 7 7 7 7 7 7 6 6 6 6 6 6 6 6 6 6 6 6 5 5 5 5 5 5 4 4
14 16 16 15 14 15 16 17 16 15 13 12 14 15 14 13 13 12 12 12 12 13 13 13 13 14 14 12 10 10 11 10 10 10 10 10 10 10 9 8 7 7 7 7 7 7 7 7 7 7 7 7 8 8 8 8 7 7 7 7 7 7 7 7 7 7 7 7 6 6 6 6 6 6 6 6 6 6 6 6 5 5 5 5 5 5
14 13 14 14 14 14 15 15 13 11 10 10 11 11 11 10 9 10 12 13 12 13 14 13 13 13 13 11 10 10 10 10 10 10 10 10 10 9 8 8 7 7 7 7 7 7 7 8 7 7 7 7 7 8 8 8 7 7 7 7 7 7 7 7 7 7 7 7 6 6 6 6 6 6 6 6 6 6 6 6 6 6 5 5 5 5
11 10 12 13 13 12 12 11 10 10 10 10 9 9 9 9 9 10 12 13 13 13 13 13 13 13 12 11 10 10 10 10 10 10 10 10 9 9 8 8 8 7 7 7 7 7 7 7 7 7 6 7 7 8 8 8 8 7 7 7 7 7 7 7 7 7 7 7 7 6 6 6 6 6 6 6 6 6 6 6 6 6 6 5 5 5
11 10 12 13 13 14 14 11 9 10 10 10 10 9 9 9 9 10 11 12 13 13 13 13 13 12 11 11 11 10 10 10 10 10 10 9 9 9 8 8 8 7 7 7 7 7 7 7 7 7 6 6 7 8 8 8 8 8 8 8 7 7 7 7 7 7 7 7 7 7 7 6 6 6 6 7 7 6 6 6 6 6 6 6 5 5
12 12 13 12 12 14 14 11 8 9 9 8 9 10 10 10 9 9 10 12 12 12 12 12 12 12 11 11 11 10 10 10 10 10 9 9 8 8 8 8 7 7 7 7 7 7 7 7 7 7 7 6 7 8 8 8 8 8 8 8 7 7 7 7 7 7 7 7 7 7 7 7 7 7 7 7 7 7 7 6 6 6 6 6 5 5
11 12 13 12 12 13 13 11 10 11 11 10 9 9 9 9 9 9 10 11 11 11 11 11 11 12 11 11 11 10 10 10 10 9 9 8 8 8 8 8 7 7 6 6 7 7 7 7 7 7 7 7 7 8 8 8 8 8 8 8 8 8 8 8 8 8 7 7 7 7 7 7 7 7 7 7 7 7 7 7 6 6 6 6 5 5
12 13 12 12 14 15 14 13 12 13 15 13 11 10 9 9 9 9 10 10 11 10 10 10 11 11 11 11 11 10 10 10 9 9 9 8 8 8 8 7 7 6 6 6 6 7 7 8 8 8 7 8 8 8 8 8 8 8 8 8 8 8 8 8 8 8 8 8 7 7 7 7 7 7 7 7 7 7 7 7 6 6 6 6 6 5
12 13 12 14 15 15 14 12 11 13 14 12 10 9 9 8 9 10 10 10 11 10 10 10 10 10 10 11 11 11 10 9 9 9 8 8 8 8 7 7 6 6 6 6 6 7 7 7 8 8 8 8 8 8 8 8 8 8 8 8 8 8 8 8 8 8 8 8 8 7 7 7 7 8 7 7 7 7 7 7 7 6 6 6 6 5
Height
763 769 771 767 766 769 771 770 770 774 772 773 775 774 777 775 770 771 771 776 774 773 790 796 789 788 786 789 795 794 794 794 796 795 794 800 804 805 808 807 806 806 805 804 807 811 812 812 812 813 814 816 817 818 820 821 822 823 824 824 826 827 829 830 831 832 832 833 833 834 834 834 835 835 835 836 836 837 837 838 838 838 839 838 838 838
764 766 766 763 765 767 771 771 771 776 776 774 774 773 778 775 771 773 774 777 773 773 792 797 790 795 794 793 796 795 796 796 795 794 796 802 800 799 804 807 807 807 806 807 809 812 813 813 814 815 816 817 819 820 821 822 823 824 825 825 827 828 829 830 831 832 833 833 833 833 834 834 835 835 835 836 837 837 838 838 838 838 838 838 838 838
767 766 764 763 765 767 772 771 769 774 775 776 776 774 776 775 774 775 775 778 773 771 788 794 793 800 798 795 797 797 798 797 795 794 796 801 801 801 805 808 810 810 810 811 812 813 814 815 816 816 818 819 820 822 822 824 825 825 826 827 828 829 830 831 832 832 833 834 834 834 834 835 835 836 836 836 837 838 838 838 838 839 838 838 838 838
768 765 763 765 766 767 773 772 770 773 775 776 777 775 775 778 778 775 775 781 777 773 783 789 793 799 797 798 800 798 798 798 797 798 799 801 804 806 808 810 812 812 813 814 814 815 816 816 818 818 819 821 822 824 825 826 827 827 828 829 829 830 831 832 832 833 833 834 834 834 835 835 836 836 837 837 838 838 838 838 838 839 839 838 838 839
763 761 763 766 764 765 772 775 772 773 777 779 778 775 774 778 780 778 780 783 779 779 780 780 788 799 798 799 803 800 799 800 800 803 806 806 806 808 809 812 814 814 815 816 816 817 818 818 820 820 821 823 824 826 827 828 829 829 830 831 831 832 832 832 833 834 834 834 835 835 835 836 836 837 838 838 838 838 838 838 839 839 839 839 839 839
760 760 762 766 764 763 769 774 772 771 777 782 779 775 772 774 778 782 785 782 780 784 784 779 788 803 802 798 804 804 801 803 804 807 811 811 810 810 812 814 816 817 816 816 819 819 821 822 822 823 824 825 826 827 829 830 831 831 832 833 833 833 833 833 834 835 835 835 835 836 836 837 837 837 838 838 838 839 839 839 839 839 839 839 839 839
760 762 760 762 764 765 768 772 771 769 776 782 776 772 774 775 776 781 781 779 782 787 788 784 787 804 808 799 803 805 802 805 807 810 813 812 811 809 810 813 815 819 817 817 822 821 822 824 823 824 825 826 828 829 831 832 833 833 834 835 834 834 834 834 835 835 835 836 836 836 837 837 838 838 839 839 839 839 839 839 839 839 839 839 839 838
758 763 762 759 762 765 766 769 771 768 773 778 772 771 776 776 777 779 778 778 783 786 789 787 783 798 809 801 801 803 802 807 809 811 812 810 809 807 809 810 811 816 815 816 822 822 823 824 823 825 826 827 829 830 831 833 834 835 835 836 836 835 835 835 835 836 836 836 836 837 837 838 838 839 840 840 840 840 840 840 840 840 840 839 839 839
756 761 762 759 761 764 762 763 768 768 769 772 771 772 773 773 775 775 775 778 784 787 790 791 786 794 805 803 801 802 804 809 811 811 809 807 808 808 809 810 810 814 812 814 821 822 822 824 824 825 826 828 830 831 832 834 835 836 837 837 837 837 837 837 836 836 836 837 837 838 838 839 839 840 840 840 840 840 840 840 840 840 840 839 839 839
754 754 755 756 759 761 760 762 765 764 765 769 771 773 772 775 777 778 778 779 787 792 792 791 786 789 801 805 805 805 804 805 807 807 805 805 807 808 809 809 810 814 813 814 821 822 822 824 825 826 827 829 831 832 833 834 836 837 838 838 837 838 838 838 837 837 837 837 838 839 839 839 840 840 840 840 840 840 840 840 840 840 840 839 839 839
752 751 752 753 754 755 759 763 763 761 763 768 771 773 776 780 780 782 783 782 790 796 789 785 783 785 796 802 803 800 793 789 796 804 803 803 805 805 807 808 809 813 814 816 821 822 822 824 826 827 828 831 832 834 834 835 836 837 838 839 838 839 839 838 838 837 837 838 838 839 839 839 839 840 840 840 840 840 840 840 840 840 840 839 839 839
753 754 755 752 751 752 758 764 765 763 763 765 767 771 779 785 784 786 789 790 795 795 789 787 785 785 791 795 794 789 781 779 787 797 800 801 803 804 806 809 811 814 816 817 821 823 822 824 827 828 829 832 833 834 835 835 837 838 839 839 839 840 840 839 839 838 838 838 838 839 839 839 839 839 839 839 840 840 840 840 840 840 840 840 839 839
754 755 755 753 751 749 755 765 769 770 765 762 764 770 781 789 793 795 793 794 794 791 794 796 791 789 787 787 790 786 781 780 782 788 793 795 798 803 809 812 815 817 818 820 822 823 824 825 827 828 830 832 833 833 835 835 836 838 840 840 839 840 840 840 839 839 838 838 839 840 839 839 839 839 839 839 840 840 840 841 840 840 840 840 839 839
758 758 754 754 754 747 749 759 767 771 766 761 762 766 776 787 799 803 797 797 797 791 795 797 792 792 787 786 792 789 783 779 780 787 791 793 798 805 810 813 816 819 821 824 825 825 827 827 828 829 830 833 833 833 834 835 837 838 840 840 840 841 841 840 840 840 840 840 840 841 840 840 840 840 840 840 840 840 840 840 840 840 840 840 840 839
759 762 754 751 754 748 746 750 754 761 763 761 758 758 767 775 785 793 789 790 793 792 797 799 794 791 788 790 793 789 784 780 781 789 793 796 802 807 810 813 815 817 820 825 826 826 828 829 829 830 831 833 834 833 834 836 837 838 840 841 841 842 842 841 841 842 842 842 842 842 842 841 841 841 841 840 841 840 840 840 840 840 840 840 840 840
753 758 750 745 748 745 748 749 748 756 765 766 762 762 767 764 768 785 790 788 789 789 794 798 797 795 790 790 792 787 786 785 787 793 797 801 805 807 811 812 814 816 818 822 825 826 828 830 830 831 832 834 834 834 836 837 838 839 841 842 843 843 843 843 843 843 844 844 843 843 843 842 842 842 842 841 841 841 840 840 840 840 840 840 841 840
753 756 750 748 749 744 745 749 747 751 760 767 768 765 764 759 762 782 795 798 794 787 791 798 799 799 794 791 792 791 791 792 794 798 800 803 806 808 811 812 814 817 818 821 822 823 826 828 829 831 833 834 834 835 837 838 839 840 842 843 843 844 844 844 845 845 845 845 845 844 844 843 843 843 842 842 842 842 841 841 841 841 841 841 841 841
749 753 752 749 750 745 742 745 747 746 749 762 766 760 760 764 765 771 783 795 794 786 794 802 799 797 795 793 793 793 795 797 798 800 802 804 805 807 810 811 814 816 818 821 822 822 823 825 827 831 834 835 835 836 837 838 840 841 842 843 844 845 846 846 847 847 847 846 846 846 845 844 844 843 843 843 843 843 843 842 842 842 842 842 842 842
743 750 754 747 744 745 744 747 752 751 748 751 753 749 756 767 771 773 779 786 789 788 793 801 802 796 788 788 792 792 794 795 796 799 801 803 803 805 809 812 814 817 819 822 824 824 823 824 827 831 834 836 835 836 838 839 841 842 843 844 844 846 847 848 848 848 848 847 847 847 846 845 845 844 844 844 844 844 843 843 843 843 843 843 843 843
741 747 753 747 743 745 747 750 754 755 752 749 748 748 754 759 761 768 772 772 776 783 788 797 805 796 780 779 785 784 785 788 790 795 798 799 801 804 808 812 815 817 819 821 823 825 824 825 829 832 834 835 835 836 838 840 842 843 844 845 846 847 848 849 849 849 849 849 848 848 847 847 846 845 845 844 845 844 844 844 844 844 844 844 844 844
742 747 750 750 750 748 749 748 745 747 751 751 752 754 757 760 759 761 767 769 770 777 786 791 792 784 773 772 772 770 774 780 783 789 794 796 799 803 807 811 814 816 818 820 822 824 825 827 831 833 834 835 834 836 839 841 842 844 845 846 847 848 850 851 851 851 850 850 850 849 849 848 847 846 846 846 846 845 845 845 845 845 845 845 845 845
742 746 747 751 753 749 745 742 737 739 742 744 748 751 752 757 760 764 773 775 771 774 783 784 777 771 772 774 769 765 769 775 781 787 793 796 799 804 807 809 813 815 817 820 822 824 826 828 830 832 834 834 834 837 840 841 843 844 846 848 848 849 851 852 852 852 852 852 852 851 850 850 849 848 848 847 847 847 847 846 846 846 846 846 846 847
739 742 745 750 750 746 743 742 740 737 736 739 742 743 746 750 752 759 768 773 774 777 781 781 774 770 776 778 772 768 770 775 781 786 793 797 800 804 808 810 813 815 817 820 823 825 827 827 829 832 833 834 835 838 840 841 843 846 847 848 849 850 852 853 853 854 854 853 853 853 852 851 851 850 849 848 848 848 848 848 847 847 847 847 847 848
737 740 744 748 748 745 742 743 742 739 739 743 741 740 745 747 746 750 756 763 769 773 776 778 774 772 778 779 772 769 774 778 782 787 793 799 802 805 808 810 814 816 819 822 824 826 827 827 829 831 833 835 837 839 840 841 844 847 848 850 850 851 853 853 854 855 855 855 854 854 853 853 852 852 851 851 850 850 850 849 849 849 848 848 849 849
736 741 742 747 754 755 750 748 748 745 744 744 742 743 743 744 748 753 757 761 762 763 765 767 769 774 781 780 773 773 778 782 785 789 793 798 803 806 808 811 814 817 820 823 825 827 828 827 828 830 833 836 838 839 840 842 846 848 849 850 850 852 853 854 855 856 856 856 855 855 854 854 854 854 853 853 852 852 851 850 851 851 850 850 850 850
733 741 739 742 751 757 754 750 748 748 747 745 744 745 744 744 748 752 758 763 764 766 764 758 764 779 786 781 776 778 782 786 789 791 794 798 801 806 809 812 815 817 820 822 824 827 827 825 826 830 834 837 838 839 841 844 847 849 850 851 851 853 854 855 856 856 856 856 856 856 856 855 855 855 855 855 854 854 853 852 852 852 852 852 851 851
733 740 738 736 740 744 743 742 745 746 745 745 745 745 745 746 745 746 754 758 760 767 767 758 763 780 786 782 778 780 783 786 790 793 796 799 800 803 808 812 815 817 820 822 824 825 825 825 828 832 836 837 838 840 842 846 848 849 850 851 852 853 854 855 856 856 856 856 856 857 857 857 857 857 857 857 856 856 855 855 854 854 854 853 853 852
732 738 740 739 742 747 746 748 752 748 741 741 742 742 745 747 745 746 751 752 754 761 763 764 768 771 775 779 777 777 780 783 787 791 794 798 801 803 807 811 815 818 820 823 823 823 825 828 831 835 836 838 839 841 844 846 848 850 850 852 853 854 855 856 856 857 857 857 857 858 858 858 858 858 858 858 858 857 857 856 856 855 855 854 854 853
728 735 741 744 749 755 755 754 754 750 746 744 741 738 741 745 746 746 745 746 748 747 749 762 768 759 760 771 771 771 775 778 784 789 792 797 801 803 806 810 814 818 821 822 822 823 827 830 833 836 837 838 841 842 845 847 848 850 851 852 853 854 855 856 857 857 858 858 859 859 859 860 860 860 860 860 859 859 858 857 857 856 856 855 855 854
726 733 742 744 745 751 754 755 755 752 750 750 750 749 746 743 743 742 743 746 748 746 747 757 763 756 756 762 765 770 775 778 785 790 793 797 801 803 806 809 813 817 819 820 822 825 828 832 834 836 837 839 842 843 845 847 848 850 851 852 853 854 855 856 857 858 859 860 860 861 861 861 861 861 861 861 860 860 859 858 858 857 857 856 856 855
728 736 744 739 739 746 750 753 754 751 747 748 758 765 758 749 748 746 749 755 754 753 758 761 762 762 761 761 765 772 776 780 786 790 792 796 799 802 806 809 812 815 817 820 823 826 829 832 834 836 838 840 842 843 845 847 848 850 851 853 854 854 855 856 856 858 860 862 862 862 862 862 862 863 862 862 862 861 860 860 859 859 858 858 857 856
728 741 746 737 737 746 749 751 753 750 747 747 753 761 757 752 753 752 755 760 754 752 763 768 764 761 760 761 767 773 777 781 786 788 790 793 796 799 803 806 810 813 816 820 823 826 829 831 833 836 838 840 842 843 845 846 848 850 852 853 854 855 855 855 856 859 861 863 864 863 863 863 864 864 864 864 863 863 862 861 861 860 860 859 859 858
728 736 742 738 738 746 750 752 752 749 746 744 748 755 755 754 757 757 759 762 755 750 759 761 751 750 756 762 768 774 777 779 781 782 784 788 792 796 799 803 807 811 815 819 822 825 828 830 834 836 838 840 842 844 846 847 849 851 852 853 854 855 856 855 856 859 862 864 865 864 864 865 865 865 866 866 865 864 864 863 862 862 862 861 860 859
728 728 737 740 737 744 752 752 751 749 744 746 757 764 762 758 755 751 753 758 754 752 758 757 749 749 755 759 763 766 767 769 773 776 780 784 789 795 798 801 806 810 815 819 822 825 827 831 834 837 838 841 842 844 846 848 849 851 852 854 855 857 857 856 856 860 863 865 866 866 866 866 866 867 867 867 867 866 866 865 865 864 864 863 861 860
726 728 741 745 740 746 753 750 749 749 746 752 765 768 765 764 759 753 756 761 759 759 763 762 755 752 751 752 756 760 762 767 773 777 782 785 787 791 797 801 805 809 814 817 820 824 827 830 834 836 839 841 843 845 847 848 850 851 853 855 857 858 858 858 859 862 865 866 867 867 867 867 868 868 869 869 869 868 868 868 867 866 865 864 863 862
723 729 740 748 749 750 750 748 747 747 751 759 766 767 766 766 762 755 751 754 758 759 759 757 754 753 753 755 760 764 767 772 776 780 783 785 786 788 792 798 803 807 810 814 817 821 825 829 832 835 838 841 843 845 847 849 850 852 854 856 858 859 860 860 862 864 866 867 868 868 868 869 869 870 871 871 871 870 870 870 869 868 867 866 864 863
719 725 732 745 755 752 747 747 746 744 748 751 751 754 756 753 751 744 735 739 750 755 754 754 755 755 756 760 764 766 770 776 782 785 783 783 786 787 790 794 800 805 809 813 817 821 825 829 831 834 837 841 843 845 847 849 851 853 855 857 859 860 861 862 864 865 867 868 869 869 869 870 871 872 872 873 872 872 872 871 870 869 868 867 866 865
719 722 721 732 753 757 748 746 747 746 744 736 731 738 743 743 743 739 731 734 745 750 749 751 754 755 757 762 766 769 774 781 785 783 781 781 785 787 791 796 800 804 809 813 817 822 826 829 832 835 838 841 844 846 848 850 852 854 856 858 859 861 862 863 865 866 868 869 869 870 871 872 873 873 874 874 874 874 873 873 872 871 869 868 868 867
724 725 721 726 747 754 743 740 747 747 737 727 727 737 743 743 743 739 734 732 738 746 747 747 751 755 756 760 764 766 772 776 775 772 774 778 782 786 791 796 801 805 809 813 817 821 825 829 833 836 839 841 844 847 849 851 853 855 857 859 860 861 863 864 866 867 868 869 870 871 872 873 874 875 875 875 875 875 875 874 873 872 871 870 869 869
726 728 728 730 740 744 738 737 743 740 730 729 735 740 742 742 741 740 737 731 732 741 743 741 745 750 753 759 762 760 761 761 759 761 769 777 782 787 791 795 800 806 810 814 818 821 825 829 833 836 840 842 844 847 850 852 854 856 858 859 861 862 864 865 867 868 869 870 872 873 874 875 875 876 876 877 876 876 876 875 875 874 873 872 871 871
731 733 736 734 734 738 737 736 738 734 729 734 740 741 740 740 738 736 734 730 732 739 739 737 740 743 747 754 755 754 755 756 756 761 770 778 784 790 794 797 800 804 809 813 817 821 825 829 832 836 840 842 845 848 850 853 855 857 859 860 861 863 865 866 868 869 870 872 873 874 875 876 877 877 877 877 877 877 877 876 876 875 874 874 873 872
731 735 740 737 736 741 740 736 737 733 730 736 742 741 740 737 731 729 732 735 737 738 737 738 740 741 745 749 751 755 759 760 762 767 774 781 786 791 795 799 802 806 810 813 817 821 825 829 833 836 840 843 846 848 851 853 856 858 860 861 863 864 866 867 869 870 872 873 874 875 876 877 878 878 878 878 878 878 877 877 876 876 876 875 874 874
726 726 732 736 740 745 743 740 738 732 728 733 737 738 738 733 728 729 736 739 738 736 738 741 741 743 747 752 756 760 762 764 767 772 778 784 788 792 796 800 803 807 811 815 819 822 825 829 834 837 840 844 846 849 852 854 856 859 861 862 864 865 867 869 870 871 873 874 875 876 877 878 878 879 878 879 878 878 878 878 878 877 877 876 875 874
727 725 728 732 734 735 733 732 733 731 731 731 730 730 733 733 732 734 735 736 738 738 739 741 743 745 748 753 760 762 763 766 770 773 779 785 789 793 798 802 805 809 812 816 820 823 826 829 834 838 841 844 847 850 852 855 857 859 861 863 865 866 868 870 871 872 874 875 876 877 878 878 879 879 879 879 879 879 879 879 879 878 878 877 876 875
728 730 730 729 730 732 730 729 733 737 740 738 736 736 736 736 738 737 733 734 737 738 738 741 744 746 749 754 760 762 763 766 770 774 779 784 789 794 799 803 807 810 813 817 820 824 827 830 833 838 842 845 848 850 853 856 857 860 862 864 865 867 869 870 872 873 875 876 877 878 878 879 879 879 879 879 879 879 880 879 879 879 879 878 877 876
735 738 734 730 733 738 738 738 741 741 739 739 740 741 740 738 738 737 734 734 735 735 737 740 742 745 750 754 759 762 764 767 770 775 780 783 789 795 799 804 808 811 814 818 821 824 828 831 835 839 842 845 849 851 854 857 858 860 862 864 866 868 869 871 872 874 875 876 877 878 878 879 879 879 879 880 879 880 880 880 880 880 880 879 879 877
736 737 734 732 732 730 730 739 744 741 739 741 740 739 740 739 738 738 736 735 735 736 738 740 742 746 752 755 757 761 765 767 770 776 780 784 789 795 799 804 809 812 815 818 821 825 828 832 836 840 842 845 849 851 854 857 859 861 863 864 866 868 870 871 873 874 875 876 877 878 878 879 879 879 880 880 880 880 881 881 881 881 880 880 879 878
732 731 731 734 734 729 730 740 745 742 741 743 741 738 739 738 738 739 738 736 737 739 740 742 745 748 752 755 757 760 765 769 771 775 780 785 790 795 800 804 808 812 816 820 823 827 829 832 837 840 842 845 848 851 855 857 859 861 863 865 867 868 869 871 873 874 875 876 877 878 878 879 879 880 880 881 881 881 881 881 881 881 881 880 880 879
732 730 731 734 733 731 732 738 741 738 736 738 740 740 739 739 739 739 739 739 740 741 743 746 748 749 752 755 757 760 765 770 772 775 780 786 791 795 800 804 808 812 816 820 824 828 830 834 837 840 843 845 848 851 854 857 859 861 863 865 867 868 869 871 872 873 875 876 877 878 878 879 879 880 881 881 881 882 882 882 882 881 881 881 880 879
731 730 733 733 729 727 727 730 733 730 726 729 734 737 738 739 740 739 739 740 741 742 744 747 750 752 754 756 757 760 765 770 774 777 781 786 791 796 800 804 808 812 815 820 824 828 831 835 838 840 843 846 848 851 854 856 859 861 863 865 866 868 869 871 872 873 874 875 877 878 878 879 880 880 881 881 881 882 882 882 882 881 881 881 880 879
728 728 730 727 724 725 727 728 732 730 726 729 734 735 737 739 739 739 740 740 740 742 744 746 749 753 756 758 759 760 764 770 775 778 782 787 791 796 800 804 807 810 815 820 824 828 831 835 838 840 843 845 848 851 853 856 858 860 862 864 866 867 869 870 871 873 874 875 877 877 878 879 880 880 881 881 881 882 882 882 881 881 881 880 880 879
Wind_Speed
4 6 7 7 8 9 8 6 5 3 5 7 5 4 3 5 5 1 1 4 2 2 5 4 5 7 7 8 10 11 10 10 11 9 10 12 8 6 6 5 6 8 10 13 14 12 11 11 11 10 10 11 11 12 14 13 12 13 14 15 13 11 10 9 8 8 7 7 7 8 8 8 8 8 9 9 9 8 9 9 9 8 7 7 7 6
4 7 7 5 8 10 8 6 7 4 4 5 5 5 3 4 3 0 2 5 3 1 3 4 9 8 4 7 9 10 10 8 10 10 10 12 9 7 6 5 6 7 10 12 12 13 14 13 14 14 13 13 12 13 14 14 14 15 15 15 14 11 10 10 9 9 9 8 8 8 9 9 9 9 10 12 12 11 11 11 10 9 8 8 7 5
6 6 5 6 8 10 8 6 7 6 4 3 3 5 4 3 1 0 3 7 4 0 4 7 9 8 4 6 8 8 8 6 5 6 9 10 6 5 7 6 6 7 7 8 10 12 14 14 15 15 14 13 13 15 16 17 16 16 16 15 14 12 11 11 9 9 10 9 8 8 9 10 12 13 13 14 13 13 12 11 11 10 10 10 9 8
6 5 7 8 10 12 8 7 7 5 3 2 2 4 5 2 0 2 2 6 6 4 5 9 9 7 5 7 7 7 7 5 2 4 7 6 5 8 8 4 5 8 7 7 9 12 13 14 14 14 15 14 14 15 16 18 19 19 18 17 15 14 14 13 11 10 10 9 8 10 12 12 14 15 15 15 14 13 13 11 10 9 8 9 9 9
5 6 9 9 11 14 10 8 9 7 4 2 2 4 3 3 1 0 2 2 4 6 5 8 6 4 4 6 6 6 7 7 5 8 8 6 7 10 9 4 2 5 7 6 8 10 12 13 13 15 16 15 13 12 13 17 19 20 20 18 18 17 17 15 13 12 10 10 10 12 14 13 13 12 11 12 11 11 10 10 10 8 6 7 7 7
4 7 11 11 10 13 11 9 10 10 6 3 3 5 3 3 3 3 2 1 2 3 2 1 2 2 2 6 7 5 7 8 8 9 8 7 8 9 9 5 4 2 5 6 5 9 12 12 14 16 16 15 13 12 12 13 17 20 21 19 18 18 17 15 13 11 11 11 11 12 12 11 10 10 9 9 9 9 10 11 11 10 8 8 7 6
3 6 10 12 11 12 11 8 9 9 7 4 4 5 3 3 4 3 2 1 1 2 1 2 3 2 2 6 8 7 8 9 9 11 10 8 8 9 8 6 4 1 4 7 3 7 12 12 15 15 16 17 15 13 13 14 16 19 20 18 18 18 17 16 14 11 11 12 12 12 12 11 10 11 9 10 11 11 12 14 14 12 11 10 9 8
6 9 9 11 12 10 10 8 7 9 8 4 3 6 6 4 4 3 1 1 1 1 2 1 2 2 2 5 7 8 10 9 9 11 12 9 9 10 10 10 9 7 7 8 3 7 12 13 15 15 16 18 16 17 19 19 19 19 19 18 18 19 18 17 15 12 12 12 12 12 12 12 13 14 13 13 14 13 13 14 12 11 11 11 10 10
6 11 10 11 11 8 7 7 8 10 7 3 4 7 7 5 5 3 2 1 2 0 2 2 2 2 2 4 7 9 10 9 10 12 14 13 11 12 12 12 12 10 10 10 7 9 14 13 16 19 20 19 17 21 23 22 21 20 19 18 18 18 16 15 14 13 14 14 14 14 14 14 14 15 14 13 12 11 12 11 9 8 8 9 9 10
3 9 11 11 9 7 6 7 11 12 5 3 7 6 4 3 3 2 3 2 2 2 4 6 7 4 2 5 8 9 9 11 11 12 14 14 14 13 13 13 13 12 11 11 8 10 16 14 15 20 21 18 18 22 23 23 22 20 19 18 18 17 15 14 13 13 14 13 14 14 14 14 13 12 11 9 9 8 8 8 7 7 7 7 8 9
2 5 7 7 6 6 7 7 9 9 7 8 9 7 5 3 2 2 0 1 2 5 3 8 10 6 3 5 9 9 9 13 14 12 13 15 15 14 13 13 12 11 11 12 9 10 17 17 16 20 20 18 20 23 23 23 22 20 20 19 19 17 15 14 13 13 13 13 14 14 13 12 11 9 7 7 7 7 7 8 7 6 6 7 8 9
4 6 5 3 4 7 8 6 3 3 9 11 7 6 5 3 1 2 2 1 5 5 1 4 7 7 5 4 9 11 9 11 16 16 17 18 17 15 12 10 9 9 10 12 10 10 15 16 16 18 18 17 20 22 22 22 21 20 20 19 20 18 16 15 15 14 15 14 13 12 11 12 11 9 9 9 9 8 8 8 7 6 7 7 8 9
5 5 2 2 5 9 10 8 3 2 7 8 6 8 7 4 4 4 4 3 5 2 2 0 4 5 4 1 5 10 8 9 15 16 19 21 19 15 11 9 8 7 7 8 9 8 9 11 13 15 15 14 18 21 21 21 20 20 19 19 20 19 17 17 17 16 16 15 14 13 13 15 15 14 14 14 12 10 9 8 8 8 8 8 8 9
4 1 3 5 5 8 11 10 7 5 7 9 8 10 9 6 5 6 5 2 2 1 2 0 4 4 2 3 2 6 6 8 14 15 17 18 16 13 12 11 9 8 7 5 6 7 6 8 10 13 14 13 16 21 22 21 20 19 19 18 19 20 19 19 18 18 19 19 18 17 18 17 17 18 17 16 14 12 10 9 9 8 8 8 8 9
7 3 6 8 4 7 12 9 7 7 7 6 4 6 7 5 4 5 5 4 2 3 2 2 3 3 2 2 2 3 3 7 14 14 12 13 13 13 13 11 11 10 9 6 6 8 8 8 11 13 13 13 16 21 23 22 21 20 19 18 19 20 19 19 19 19 20 20 20 19 19 19 18 17 17 16 15 13 11 10 10 9 9 8 8 8
6 3 4 4 3 10 12 5 6 9 7 2 1 3 5 4 3 1 1 1 2 2 2 3 2 1 0 2 2 5 9 12 14 13 12 13 13 13 13 12 12 11 11 10 9 10 9 9 12 13 14 15 17 20 21 21 21 21 19 19 20 20 20 20 19 19 19 19 19 18 17 16 15 15 15 14 14 13 13 13 12 11 10 9 8 8
5 3 2 2 2 9 12 9 8 9 7 3 3 6 3 2 3 3 1 2 1 3 3 3 1 1 1 1 4 11 12 13 14 13 13 14 14 14 13 12 13 12 12 11 10 10 11 11 12 13 13 14 17 18 19 20 20 20 19 20 20 20 20 20 19 19 18 17 17 15 13 13 13 13 13 13 13 13 14 15 14 12 11 10 10 9
4 4 2 5 8 7 6 11 11 6 5 6 7 6 4 2 1 1 2 1 2 5 2 2 4 5 3 2 8 13 13 14 14 13 14 14 15 14 13 13 14 13 13 10 9 10 12 13 14 14 13 14 18 20 21 22 21 20 20 20 20 20 19 18 17 17 16 16 16 13 12 13 12 12 13 13 13 13 14 15 15 13 12 12 12 11
3 4 2 6 11 7 4 8 9 3 1 3 6 7 4 3 4 3 3 3 4 4 2 3 5 6 5 5 10 15 16 16 16 15 15 16 16 14 14 15 15 15 13 12 10 8 10 14 15 15 15 16 20 23 23 23 21 20 20 20 20 19 18 16 16 16 16 16 16 14 13 13 13 13 13 13 13 14 14 15 15 14 13 12 12 13
2 3 3 3 5 7 6 7 9 7 2 1 6 7 2 2 4 3 2 2 3 4 2 3 4 4 5 7 14 18 19 21 20 18 16 17 17 15 14 14 15 15 13 12 12 10 11 15 15 15 16 18 21 24 24 23 22 21 21 20 20 19 17 16 16 17 17 17 17 16 16 15 15 15 14 14 14 15 15 15 15 14 13 13 13 13
0 1 4 3 1 5 6 7 9 11 8 6 8 9 4 1 1 2 2 1 1 3 2 2 3 3 3 6 14 19 19 22 22 19 16 16 16 15 15 15 14 14 13 12 12 12 13 15 15 15 16 19 23 24 22 22 22 21 20 19 20 19 17 17 17 17 18 18 18 18 17 17 16 16 15 14 14 16 16 15 15 13 12 13 13 13
1 1 3 4 4 6 5 4 7 11 11 9 8 8 7 4 3 4 4 2 1 0 2 1 2 1 1 1 6 12 15 18 19 17 15 15 16 15 14 15 15 14 13 13 12 12 13 16 16 16 16 18 20 20 20 21 21 20 19 18 18 18 16 16 16 17 18 18 18 19 19 19 18 17 16 16 16 17 16 16 17 17 15 14 13 13
2 2 2 3 4 4 2 1 4 10 10 8 8 8 7 6 6 7 6 4 3 1 2 1 1 1 1 2 3 7 11 14 17 17 15 14 15 15 15 15 15 15 15 14 12 11 14 16 16 16 16 17 17 17 19 20 20 19 17 17 17 17 16 15 15 15 17 18 18 19 19 20 21 21 21 20 20 19 18 18 20 22 22 19 16 14
2 2 3 3 2 1 1 2 1 6 7 7 8 7 7 6 5 4 2 4 5 5 4 2 3 1 2 2 2 7 9 10 13 16 16 13 12 14 16 14 13 13 13 12 10 10 13 15 16 15 15 16 16 17 20 21 19 18 16 16 16 16 15 14 14 14 15 17 17 18 19 20 20 21 22 22 22 22 21 21 21 23 23 22 20 18
2 1 3 5 5 5 4 3 3 5 6 5 5 6 8 7 4 2 2 3 5 5 6 6 4 2 2 1 6 10 11 9 11 15 15 13 12 13 14 12 11 11 11 11 10 9 11 13 14 14 14 14 15 17 20 20 18 16 16 16 16 16 15 13 13 13 14 15 16 17 18 18 18 19 18 19 20 21 23 23 22 22 22 22 22 21
2 2 3 5 7 8 7 6 5 4 4 2 2 6 9 9 9 5 3 4 5 3 6 6 3 2 1 5 10 13 13 12 12 13 13 13 14 14 12 11 10 9 10 12 11 9 9 11 14 14 14 14 16 18 20 19 17 16 16 17 16 15 15 14 13 14 14 15 15 16 16 17 17 17 17 16 16 18 21 23 22 22 22 22 22 22
1 1 2 2 4 5 3 2 1 3 7 6 5 8 8 9 10 7 3 4 4 4 5 4 3 6 7 9 13 15 15 15 13 13 13 13 16 17 14 10 9 9 10 10 9 9 10 11 14 14 14 15 17 18 19 17 16 15 16 16 15 14 14 14 14 15 15 16 16 15 15 16 17 16 16 16 17 17 19 21 21 21 20 21 22 22
2 2 3 3 2 0 0 1 1 2 7 8 8 10 10 8 9 9 6 4 6 5 5 4 6 8 10 14 16 17 17 17 16 15 15 14 15 16 15 12 11 11 10 10 10 10 11 11 12 14 15 16 18 18 18 17 16 15 15 15 14 14 14 14 14 15 15 16 16 15 15 16 17 17 17 18 19 19 19 20 21 21 20 21 22 21
2 4 3 3 2 1 1 1 1 2 3 4 6 9 11 11 11 12 10 6 8 7 4 7 11 9 9 16 20 19 17 17 16 15 15 15 13 14 15 14 14 13 12 11 11 12 11 11 13 15 16 17 18 18 18 17 16 15 15 14 14 14 13 13 14 15 15 16 16 15 16 17 18 18 19 19 20 21 21 22 22 22 22 22 22 22
2 3 3 3 3 3 3 0 3 4 3 2 2 3 6 9 12 11 8 6 6 4 0 9 15 8 3 11 18 15 13 13 13 14 15 16 14 14 15 15 14 13 12 12 12 12 12 13 15 16 17 17 17 17 17 16 15 15 15 14 14 14 13 13 14 15 15 16 15 15 16 18 18 19 20 21 22 22 23 23 24 23 23 23 22 22
2 2 2 3 2 2 4 2 2 4 4 4 2 1 2 6 6 4 2 3 3 1 2 8 11 5 1 8 14 12 11 12 13 15 17 16 16 16 16 14 14 14 13 12 13 13 13 14 16 17 17 17 17 17 17 16 16 16 15 14 14 14 13 14 16 16 15 15 15 16 18 19 20 21 22 22 23 23 23 23 24 23 23 23 23 23
1 1 1 3 4 1 2 3 2 2 4 5 2 3 5 6 4 2 2 3 4 5 8 7 6 5 5 11 14 12 14 16 17 18 19 17 17 17 17 16 15 15 14 14 14 14 14 15 17 18 17 17 17 17 17 17 17 16 15 15 15 14 14 16 18 18 16 15 16 18 20 21 22 22 22 22 23 23 23 23 24 24 23 23 23 22
3 4 2 3 4 2 1 2 1 1 4 4 1 3 4 4 3 2 1 3 5 7 9 6 4 5 11 15 16 16 17 18 18 18 19 19 18 17 17 17 16 15 15 14 14 15 15 16 17 17 17 17 17 18 18 19 18 17 17 16 16 15 17 20 22 22 20 19 20 22 23 23 23 23 22 23 23 23 23 24 24 24 23 22 22 22
4 5 3 1 3 4 1 2 0 3 4 2 1 1 3 2 4 5 2 3 6 5 3 1 2 11 17 19 19 20 20 18 17 16 16 17 17 15 16 17 16 15 15 14 15 15 16 17 17 17 18 19 20 21 21 21 20 18 17 16 16 18 21 24 26 25 23 22 23 23 24 23 23 22 22 22 22 23 23 24 23 22 21 21 21 21
6 4 2 1 1 3 1 1 4 5 3 1 2 2 4 3 3 3 1 3 6 4 1 1 6 14 18 17 18 18 16 14 15 15 15 16 15 15 16 15 15 16 16 15 15 16 18 20 19 18 19 21 22 22 22 21 21 19 17 17 19 21 23 25 26 25 24 23 24 24 24 23 23 23 22 21 21 21 22 22 22 22 20 20 20 20
7 5 3 2 1 2 2 3 4 2 0 1 1 1 3 3 3 3 2 6 9 8 5 5 7 12 14 14 14 13 11 11 10 10 14 16 15 16 16 15 16 17 17 17 18 20 21 22 22 22 22 22 22 23 23 23 22 20 19 20 22 23 23 24 24 23 23 24 24 24 24 23 23 22 21 20 20 20 20 21 22 23 22 20 20 20
6 6 4 2 0 1 2 3 1 2 1 2 2 4 6 5 5 5 2 4 9 10 7 7 9 13 14 13 12 11 12 11 7 7 12 15 15 15 16 17 19 19 18 20 21 22 22 23 25 26 26 25 25 25 26 25 23 22 21 21 22 23 23 22 22 22 23 23 23 23 23 22 22 22 20 19 19 18 19 20 21 23 23 21 20 20
2 3 5 4 1 0 2 2 2 2 3 3 3 5 6 4 3 3 1 1 7 10 9 10 13 15 15 14 14 13 12 10 7 9 13 16 15 13 14 17 21 22 22 23 23 22 22 25 28 28 28 27 27 27 27 25 23 23 22 21 21 21 21 21 21 22 23 23 23 22 22 21 21 20 19 18 18 18 18 19 20 22 24 22 20 20
4 2 2 4 3 2 3 4 3 3 3 2 1 3 5 4 2 2 2 2 6 12 13 13 16 18 18 17 17 16 13 8 8 10 14 17 16 15 15 17 20 22 23 24 26 25 24 25 27 27 27 27 27 27 27 25 24 23 21 21 21 20 20 20 21 22 22 22 21 20 20 19 19 18 17 17 17 17 18 19 19 21 23 23 20 19
4 2 1 3 4 4 4 3 2 2 2 2 1 3 6 4 2 3 4 2 6 14 16 16 19 21 20 18 17 16 13 8 6 9 14 16 15 16 19 20 21 23 22 22 25 28 27 27 27 25 24 25 27 28 27 25 24 22 21 21 21 20 19 20 21 21 22 21 20 19 18 17 17 16 15 15 16 17 17 18 19 20 22 23 20 19
3 1 0 3 4 4 5 3 1 2 2 1 1 4 6 4 3 5 4 0 5 13 15 15 19 22 22 21 18 13 7 3 7 12 16 17 16 17 20 24 25 26 26 27 29 29 28 27 27 25 25 27 30 29 27 26 24 22 23 22 20 20 20 21 21 21 20 19 19 17 16 15 14 14 14 14 14 15 16 17 18 19 20 21 20 20
3 2 1 2 3 3 2 2 1 2 1 3 4 3 3 3 3 3 1 1 5 12 12 13 16 19 22 21 13 6 6 10 14 16 17 17 17 17 19 21 21 21 24 27 29 29 26 24 24 25 27 30 30 28 27 26 24 23 22 20 19 21 22 21 21 20 19 19 17 16 14 13 12 12 11 12 12 13 14 15 16 17 17 18 19 18
2 3 3 3 3 2 1 3 3 1 3 9 10 4 2 2 1 1 1 1 4 10 11 11 12 16 18 14 8 8 11 15 17 18 17 17 17 18 19 19 18 20 23 25 27 29 28 24 23 26 30 30 30 28 28 27 25 23 21 19 21 23 22 21 21 20 19 18 16 14 13 11 10 10 9 9 9 10 11 12 13 14 15 16 16 15
1 1 2 2 3 3 3 4 2 1 2 7 6 3 2 1 1 0 2 3 5 8 9 8 9 14 15 11 9 11 14 16 18 19 18 17 17 18 18 18 20 22 23 24 25 29 29 25 24 27 30 30 29 29 28 27 26 23 20 20 23 24 22 21 21 19 18 17 15 13 12 10 9 8 8 7 8 8 9 10 11 11 12 14 14 13
0 0 1 1 2 2 1 1 1 2 1 1 1 1 2 2 1 1 2 4 6 8 8 8 10 13 13 12 12 12 13 16 18 19 18 17 17 17 18 20 22 23 23 24 28 31 30 27 27 29 28 28 29 29 27 27 26 23 21 22 24 23 22 21 20 18 17 15 14 12 11 9 8 7 6 6 7 7 8 9 9 9 10 11 11 11
1 1 1 1 1 1 1 1 2 2 2 1 1 1 2 2 1 1 2 4 6 7 8 9 12 13 13 13 13 12 12 16 19 18 18 18 17 18 19 21 22 23 24 25 28 30 30 28 28 27 26 27 29 28 26 26 25 24 24 25 24 23 22 21 19 18 16 14 12 11 9 7 6 5 5 5 6 6 7 8 8 7 8 8 9 10
1 2 1 1 2 3 2 0 1 2 2 2 2 1 1 1 1 1 2 3 5 7 8 9 11 13 13 13 13 13 14 17 19 17 16 17 16 16 19 21 21 23 26 27 27 30 30 26 24 24 24 25 27 28 27 25 24 25 26 25 23 22 21 20 18 17 15 13 11 9 7 6 4 4 4 5 5 5 5 6 7 6 6 7 8 9
2 3 1 1 2 2 1 0 2 4 3 3 2 2 1 1 0 0 1 3 6 8 9 9 11 13 13 12 14 17 17 17 18 18 16 15 14 15 18 22 24 26 28 28 27 29 29 24 21 21 23 24 27 28 28 25 24 25 26 24 23 22 21 19 17 15 13 12 10 8 7 6 5 4 3 3 4 4 4 4 5 5 6 7 8 8
1 2 1 2 2 1 2 2 2 3 3 4 4 3 2 1 1 2 4 6 9 10 10 11 11 11 12 13 14 17 18 16 17 18 17 13 13 15 19 24 28 30 29 28 28 29 30 27 24 24 25 26 28 29 28 26 26 26 25 23 23 22 20 18 16 14 12 10 9 8 7 5 5 4 3 3 4 4 3 4 4 4 5 7 8 8
2 2 2 2 1 1 1 2 3 1 1 3 5 5 5 3 4 5 7 9 11 12 13 13 11 10 11 14 16 17 17 15 16 18 17 14 15 19 23 27 29 30 30 30 29 28 29 30 29 28 28 28 29 29 28 27 27 26 25 23 22 21 20 18 15 13 11 10 9 8 7 5 5 4 4 3 3 3 3 3 3 4 5 6 7 8
1 2 3 3 1 1 1 2 3 1 1 1 3 5 5 5 6 8 9 10 11 12 14 15 14 13 12 14 17 19 18 16 17 18 15 15 19 25 28 30 31 30 30 30 28 26 29 31 31 29 29 29 29 29 29 28 27 26 24 23 22 20 19 17 15 13 11 11 10 9 8 6 5 5 4 3 3 3 2 2 2 3 4 5 7 7
Wind_Direction
166 169 189 190 179 169 165 170 144 112 149 149 159 166 165 193 197 245 52 40 347 119 71 36 91 107 137 128 116 127 121 120 136 148 152 153 159 165 177 181 160 150 122 111 121 125 125 126 125 130 134 136 127 123 130 127 119 117 119 122 119 121 126 118 114 113 106 106 108 105 99 95 91 89 87 83 85 87 85 84 81 77 74 71 65 48
188 193 191 167 154 153 148 140 120 109 128 141 170 169 176 210 183 66 7 16 340 139 85 93 101 89 105 120 116 131 134 134 148 158 155 151 161 159 146 140 136 127 109 110 120 124 126 125 126 129 128 125 116 114 120 116 115 119 119 120 118 120 119 112 114 112 106 100 96 96 95 93 90 88 91 89 88 90 88 83 77 71 66 65 64 61
195 196 161 145 148 143 139 144 136 129 120 121 164 165 178 203 161 157 18 17 3 89 122 117 104 90 89 106 108 119 136 151 167 161 145 150 159 120 106 110 109 105 109 120 121 116 114 110 114 116 111 107 105 107 113 115 120 122 119 118 118 117 113 112 114 109 103 95 86 90 95 97 95 94 97 95 92 92 87 79 72 63 59 59 56 52
186 180 150 146 147 140 144 162 154 145 140 128 139 168 180 152 127 194 57 32 31 48 120 122 102 98 110 107 95 97 126 149 156 82 90 107 102 89 103 127 127 130 131 124 118 109 102 100 98 98 98 99 101 104 113 120 122 118 116 115 112 107 102 101 99 98 103 104 104 105 106 107 103 102 102 99 97 92 84 77 67 55 51 55 46 32
147 144 146 147 151 149 152 165 166 172 185 191 175 190 177 113 100 118 58 45 60 62 108 127 109 95 124 138 115 99 127 141 130 103 80 76 93 97 118 145 78 129 141 121 114 108 98 96 92 94 100 98 95 97 103 111 113 112 110 108 105 100 94 90 84 86 97 106 116 117 111 108 102 98 94 90 89 85 81 82 78 70 72 76 62 39
140 141 147 150 158 154 153 166 176 177 177 201 220 219 209 139 115 80 84 151 117 105 107 158 175 126 138 162 137 128 150 144 133 124 101 96 115 116 132 138 26 36 135 107 102 103 93 93 92 94 97 93 87 88 92 98 102 105 104 102 101 96 90 84 77 78 87 95 104 105 97 91 86 78 72 74 78 79 83 91 95 96 98 94 83 65
141 156 157 154 155 154 158 171 182 176 172 193 202 199 202 134 121 113 112 129 168 157 75 312 241 143 162 177 151 156 169 151 134 132 129 131 145 147 155 145 100 350 104 87 82 101 99 100 97 94 98 98 94 94 99 99 100 103 102 100 99 96 92 88 82 77 79 86 89 87 84 84 90 89 85 86 88 91 95 98 99 98 96 90 83 74
142 158 170 159 152 160 169 172 182 179 174 181 173 169 165 152 162 155 117 99 77 110 87 321 255 124 168 177 155 164 170 156 139 139 147 160 171 162 159 150 147 179 150 120 142 121 114 116 109 105 104 104 104 105 105 103 102 102 99 98 97 96 95 93 91 85 82 88 92 93 97 96 98 100 97 92 90 92 95 94 93 91 90 84 76 67
140 163 173 161 157 173 173 149 160 172 175 174 166 170 168 166 176 174 208 213 69 222 202 168 192 194 165 144 151 166 172 166 156 159 167 171 176 164 159 158 156 176 161 133 146 136 123 120 115 115 112 108 108 108 107 105 102 100 97 96 92 88 89 90 93 93 92 94 94 96 100 97 96 96 93 89 85 83 80 78 75 73 71 67 61 55
165 174 168 164 169 177 155 134 159 173 177 144 146 143 123 121 113 114 237 220 96 251 221 167 188 217 177 152 164 171 183 189 178 176 177 170 172 169 162 163 159 166 156 127 134 136 123 119 116 116 114 110 108 109 108 106 102 100 96 93 88 83 82 83 86 91 92 93 92 92 93 93 94 92 88 83 76 68 60 57 54 54 50 46 45 41
126 148 159 172 176 158 142 147 168 173 141 128 137 126 103 93 80 78 334 127 198 240 204 171 190 221 225 172 172 185 199 194 180 173 174 169 173 175 168 165 156 152 143 124 126 128 118 115 113 112 110 108 110 110 107 104 100 97 94 90 87 83 81 81 80 82 84 85 87 86 87 89 88 83 78 69 61 55 52 52 49 46 44 42 40 34
113 136 159 182 161 136 134 147 164 152 140 140 141 139 138 128 123 143 111 156 227 229 136 165 185 203 227 188 181 204 214 193 178 171 172 173 175 175 165 154 139 130 131 125 123 122 114 111 110 109 108 111 113 109 104 101 98 94 91 88 86 84 82 81 78 78 79 80 79 78 79 81 79 76 73 67 61 57 56 55 49 45 41 37 35 31
129 152 163 150 167 156 145 149 143 138 163 163 152 155 169 169 168 198 189 190 226 210 55 88 178 195 230 115 177 210 220 200 184 176 175 176 173 165 140 112 100 97 104 108 109 111 109 111 114 112 113 116 113 108 104 100 95 90 84 82 82 81 81 80 77 75 75 75 75 75 78 79 79 78 75 71 66 62 59 55 49 45 38 32 31 28
144 189 177 153 168 171 164 166 167 168 182 181 168 171 183 175 174 201 195 193 238 154 57 97 182 215 219 105 162 220 226 195 175 172 176 172 162 143 116 100 93 87 81 82 96 102 99 105 110 112 115 115 111 110 107 102 97 91 82 78 77 77 78 77 76 74 75 77 78 79 80 78 76 74 72 69 66 62 60 55 50 47 40 36 31 27
165 170 173 163 153 174 179 180 159 148 172 183 166 175 187 180 185 203 193 196 190 134 75 123 185 214 162 100 306 233 187 157 155 157 157 150 137 122 113 114 117 116 117 122 118 112 107 109 110 111 113 111 109 109 108 104 100 93 86 82 79 78 77 75 75 77 79 80 80 78 76 73 71 70 68 66 64 60 58 54 50 47 40 37 31 27
164 121 167 170 142 171 177 166 130 143 168 194 96 175 194 182 155 129 167 151 123 127 137 165 204 285 24 346 334 153 145 142 143 136 127 127 125 121 122 127 132 134 136 136 129 118 114 115 113 113 115 114 110 107 105 102 98 93 90 86 84 83 81 79 79 81 80 79 77 73 70 68 67 67 67 66 63 59 58 54 51 48 41 37 33 27
156 119 174 160 147 184 173 154 165 173 166 147 179 192 179 111 111 117 100 53 81 200 179 146 137 133 223 299 139 140 135 134 134 130 130 134 134 132 134 140 141 141 138 136 135 132 128 122 115 115 118 116 113 109 106 104 101 98 95 91 90 87 84 83 82 81 78 75 72 67 63 63 62 63 64 63 62 60 58 54 51 49 45 40 36 31
167 135 160 176 180 200 172 160 181 195 146 147 187 176 113 54 14 139 173 130 185 211 182 129 169 169 181 182 149 143 138 140 142 139 140 143 146 144 143 148 147 143 140 137 138 136 130 125 119 120 122 118 116 114 111 110 107 103 100 96 94 89 86 85 81 78 75 71 70 65 61 61 60 61 61 59 58 58 56 52 48 47 46 43 40 37
195 144 149 198 187 175 144 171 182 197 216 177 173 155 133 203 203 172 186 183 191 205 169 141 173 191 205 177 156 154 155 158 156 151 151 155 157 153 147 150 147 143 142 140 139 136 124 123 125 128 127 121 118 116 114 114 111 105 103 100 96 93 90 86 81 78 74 72 73 70 66 63 61 60 59 58 58 57 55 50 45 46 47 45 44 42
213 158 156 205 191 152 149 190 187 178 197 133 156 166 189 247 192 173 175 181 199 202 174 156 170 209 223 181 171 174 172 170 166 161 162 162 162 157 149 150 148 145 146 144 143 140 128 126 128 129 127 123 120 117 117 116 112 107 104 101 99 96 91 86 82 79 77 75 74 73 71 67 64 63 61 60 59 58 56 50 46 48 48 48 46 44
114 190 170 136 134 168 172 200 193 176 170 168 176 183 180 109 151 181 160 75 233 196 169 187 197 202 201 182 188 187 178 174 170 164 163 162 160 157 150 149 149 147 146 144 143 139 130 126 124 123 123 122 119 116 116 116 113 109 105 102 101 96 91 86 83 80 79 76 74 72 71 68 67 66 64 63 62 60 59 53 49 50 49 50 49 45
136 185 177 144 173 191 178 189 192 182 177 176 183 183 178 167 151 184 196 149 64 153 147 197 242 178 117 216 216 198 180 175 170 159 156 157 155 152 150 149 148 149 149 145 142 138 134 130 126 124 122 118 116 114 114 114 112 108 104 102 101 96 92 89 85 83 81 78 75 72 70 69 68 67 66 65 64 62 60 56 54 55 54 52 49 46
139 137 153 153 178 187 158 29 197 188 179 176 190 188 179 178 180 198 206 156 135 144 109 133 289 82 62 339 257 196 175 169 164 155 151 151 149 147 147 147 146 148 149 145 140 138 136 131 125 123 120 115 112 113 113 111 108 105 102 101 99 97 96 94 90 87 83 81 77 73 71 70 68 68 68 66 65 64 62 59 58 59 59 58 54 50
149 148 152 136 128 170 102 38 149 190 181 185 198 187 177 186 196 210 189 140 179 189 149 192 241 136 51 329 194 155 142 145 154 153 146 140 141 144 143 144 143 143 141 136 132 134 133 127 122 119 115 113 114 112 110 108 105 104 102 101 99 99 101 100 95 90 86 83 79 75 72 69 67 66 64 63 63 64 64 62 60 60 60 60 58 56
181 208 172 147 142 165 176 159 172 194 197 199 188 174 184 179 144 111 99 154 208 195 165 200 221 122 52 198 159 143 134 139 151 154 147 137 137 143 143 143 140 135 132 132 133 136 134 126 119 114 113 116 118 112 108 107 105 106 105 103 103 103 104 103 99 94 89 84 80 75 72 68 65 63 62 61 60 61 63 64 62 61 60 60 60 58
168 181 179 168 165 175 186 188 185 172 176 211 184 176 188 179 162 155 141 183 216 182 171 209 210 113 139 174 160 151 147 148 149 150 149 144 143 145 144 143 141 136 135 138 140 138 132 119 110 111 117 122 119 112 109 109 109 110 109 108 108 108 106 104 100 96 91 86 81 76 72 68 65 64 62 61 60 60 63 64 64 62 61 60 60 58
120 156 166 162 167 176 178 168 117 148 169 184 184 181 186 184 180 179 175 192 184 146 180 215 143 138 178 183 171 165 160 156 152 150 150 150 150 149 146 142 140 139 138 138 136 130 119 110 109 116 123 122 116 113 113 114 115 114 110 109 109 109 108 105 98 94 91 88 84 79 75 72 68 67 66 65 66 65 64 65 65 63 61 60 58 56
115 179 156 99 91 89 114 109 76 178 184 180 174 179 185 185 184 194 207 177 138 158 205 187 145 161 186 188 182 176 170 163 160 158 154 153 153 149 144 139 137 137 138 137 133 126 118 114 120 125 125 120 116 115 116 117 118 116 112 110 110 109 108 103 96 92 88 86 85 81 80 77 73 71 71 71 71 69 68 67 65 63 61 58 56 54
140 193 170 107 103 83 43 216 174 154 168 171 177 184 184 183 187 201 209 174 166 207 221 162 174 189 187 189 190 183 174 165 159 156 151 148 149 147 143 140 140 143 144 141 134 128 125 128 132 131 126 122 120 119 120 119 119 117 114 113 113 109 106 101 94 90 87 86 85 84 83 80 76 75 75 74 72 70 69 67 64 62 59 56 54 52
183 182 150 134 132 78 38 47 162 153 138 127 183 213 196 190 193 201 206 177 180 228 118 158 185 201 189 188 188 177 161 150 144 145 148 149 151 151 148 145 146 149 148 143 137 134 134 135 135 133 129 128 126 124 123 121 120 119 115 113 112 108 105 101 95 89 87 86 86 87 86 82 80 79 77 75 73 71 68 66 63 61 58 56 54 53
222 176 135 152 159 51 29 54 124 164 157 135 148 230 189 184 191 199 187 148 153 144 103 157 182 206 271 170 167 155 141 140 144 151 156 158 157 156 153 149 150 151 147 143 140 138 138 138 138 137 134 132 130 128 126 124 122 119 114 112 110 107 104 101 96 92 89 89 90 91 88 86 83 80 77 75 73 70 67 64 62 59 57 55 53 51
167 141 110 178 193 220 26 52 64 123 136 130 148 183 166 165 173 156 133 171 181 149 130 144 181 210 185 159 150 145 147 152 158 161 164 165 162 159 157 154 153 153 149 147 144 143 143 143 141 140 136 132 130 128 127 125 121 116 115 114 113 112 111 106 101 97 95 95 97 95 92 89 86 81 78 75 72 70 66 63 60 57 54 53 50 48
146 143 145 186 191 187 26 25 15 145 157 155 165 178 164 151 149 131 111 210 200 155 139 159 198 172 159 157 153 155 162 166 169 170 170 169 164 161 158 156 156 155 152 150 148 147 146 144 141 139 135 132 130 129 129 128 123 119 119 120 119 118 115 110 106 104 104 103 102 99 96 92 87 82 79 76 73 70 66 61 58 55 53 51 49 48
152 147 145 197 189 172 117 9 284 215 201 176 30 226 200 177 167 164 166 204 193 165 145 283 123 138 154 166 167 169 174 176 173 170 168 165 162 160 159 159 155 151 149 147 147 145 142 140 138 135 132 131 132 132 134 133 129 127 126 124 124 121 116 111 109 109 109 108 105 103 98 93 87 83 80 77 74 70 65 62 59 55 52 49 47 46
151 141 126 112 150 146 117 165 190 200 203 89 5 256 222 223 191 158 145 209 200 192 207 199 163 162 169 175 175 173 169 162 159 159 158 161 162 159 160 158 151 147 148 148 147 145 143 141 139 135 132 134 135 136 136 134 131 128 127 126 126 122 117 113 112 112 112 110 108 105 99 93 88 84 80 77 74 70 67 64 60 55 52 48 46 45
149 140 118 85 90 134 150 187 198 217 6 68 41 162 165 177 185 166 189 214 205 201 195 181 179 177 172 168 168 162 142 125 131 147 159 166 169 164 160 157 154 155 155 153 150 147 146 145 141 138 137 138 139 138 136 135 132 129 128 128 127 123 119 116 114 113 113 111 109 106 100 94 90 86 81 77 74 72 68 64 60 55 51 48 46 46
148 143 132 108 50 166 157 182 238 321 255 189 189 184 175 173 182 184 219 218 192 186 182 168 166 170 167 158 149 136 120 116 130 165 175 175 173 168 161 157 157 155 150 146 145 144 144 144 141 141 142 141 141 140 139 138 135 131 129 129 127 124 121 118 115 115 115 113 110 106 101 97 92 87 83 78 75 73 70 65 59 54 51 48 45 45
119 153 160 160 176 184 146 166 194 232 226 212 189 182 183 192 208 203 268 260 182 178 175 165 163 165 162 152 139 128 123 132 165 190 186 179 171 160 150 147 148 145 141 140 139 138 139 141 141 143 144 142 142 142 142 141 137 133 130 129 127 125 121 119 118 118 117 114 111 107 102 98 94 88 84 80 77 74 71 65 59 54 52 50 47 44
67 44 146 150 148 165 172 175 182 195 225 249 205 159 166 181 206 207 247 250 178 172 172 166 164 167 164 156 148 145 146 165 195 193 180 173 163 150 142 140 140 141 141 141 141 140 140 141 142 143 143 142 144 146 146 143 138 133 131 130 129 125 122 121 122 121 119 117 113 110 104 99 95 90 86 81 78 75 71 66 61 57 53 51 48 44
88 54 145 156 149 165 179 179 202 219 237 281 276 139 144 150 162 199 225 240 165 171 174 169 167 171 168 160 159 164 171 188 194 166 157 154 146 141 143 141 140 140 140 139 141 143 143 143 143 142 143 145 147 149 149 146 140 134 133 132 129 125 124 125 126 124 122 120 117 112 108 102 98 93 88 83 79 75 72 67 62 58 54 51 48 45
106 82 163 175 159 173 189 186 218 239 241 243 158 148 148 155 191 207 216 22 152 171 177 173 170 170 169 168 173 180 176 113 99 117 130 136 137 140 144 142 143 145 145 144 146 145 145 145 145 145 147 149 149 151 152 148 141 137 136 134 129 127 129 130 129 127 126 124 121 117 113 108 103 98 91 86 80 74 70 65 59 57 53 50 48 46
143 122 123 167 152 158 191 189 204 258 229 133 122 130 175 187 195 205 258 30 162 170 174 175 171 171 174 175 173 160 110 98 108 119 129 138 141 143 143 139 135 136 138 142 146 145 143 143 144 145 148 151 152 153 153 150 144 141 139 135 131 133 134 133 133 132 130 129 126 124 121 116 110 103 94 87 78 69 63 58 54 53 51 49 47 45
176 166 164 166 152 125 151 179 191 235 179 150 136 133 224 216 170 127 60 69 154 161 166 171 169 171 175 167 139 118 119 120 125 130 134 140 141 141 140 135 128 129 134 139 146 148 145 142 143 146 150 153 155 155 155 151 148 145 143 138 137 138 138 137 138 137 135 134 133 131 129 124 115 106 96 85 75 65 58 54 51 50 49 47 44 40
228 191 172 178 190 185 176 180 183 345 179 161 142 142 217 205 26 207 152 123 140 157 164 165 163 169 169 150 124 130 133 131 135 138 138 141 142 140 138 135 133 136 138 140 146 150 147 142 143 149 152 155 157 158 158 155 152 151 148 144 143 143 142 143 143 141 140 140 140 138 134 128 118 107 94 82 72 63 56 53 51 47 45 43 40 36
157 176 200 197 196 201 203 218 334 345 278 200 62 351 305 335 337 226 162 139 151 164 167 162 161 165 159 142 135 140 138 137 142 143 142 142 143 141 138 140 142 141 140 142 148 152 150 146 147 151 154 157 160 161 162 159 155 153 151 149 149 149 149 150 148 147 147 146 146 144 138 131 120 104 90 81 72 65 58 53 49 45 41 40 37 35
62 151 192 117 121 209 264 302 314 313 299 284 296 293 300 316 306 189 164 152 158 165 166 164 162 159 150 143 142 143 143 143 143 144 144 142 142 141 139 141 144 143 141 143 148 152 151 148 149 152 154 158 161 163 165 163 158 155 153 154 155 155 156 157 155 155 155 154 152 150 143 134 124 102 91 84 75 71 65 56 50 45 39 37 36 36
169 178 168 86 149 189 195 275 304 303 306 301 296 277 270 304 310 254 207 168 155 160 161 156 152 151 149 149 146 142 144 145 142 143 145 143 141 141 141 142 143 143 145 146 149 152 152 148 150 154 155 158 163 166 167 165 160 157 157 157 160 162 162 162 162 163 164 162 159 156 148 140 131 109 93 86 79 76 70 61 55 48 41 37 34 33
165 191 196 117 153 198 248 296 293 296 287 269 275 277 241 249 330 271 185 144 141 147 149 147 147 150 154 154 146 142 145 147 144 143 144 143 140 139 141 144 145 144 145 147 150 153 153 150 152 157 157 159 164 166 167 165 162 162 162 163 165 166 166 166 167 167 168 167 163 160 152 144 139 126 106 93 92 92 85 71 59 51 46 40 35 32
149 190 172 125 144 249 268 218 227 274 263 227 220 228 234 229 156 137 136 140 141 139 140 146 153 156 156 154 147 142 145 148 146 143 141 139 139 141 145 148 148 145 144 147 152 157 159 159 160 161 162 164 166 167 167 167 167 167 168 168 170 170 170 171 171 170 170 170 168 165 162 157 151 143 130 115 110 112 110 94 70 59 51 42 38 37
190 165 143 156 192 249 262 207 187 207 244 210 199 194 185 178 165 149 146 152 152 148 146 148 150 151 151 153 150 145 143 146 146 142 140 139 141 145 148 148 147 145 146 150 156 159 163 167 168 167 167 168 168 168 169 170 172 174 174 175 176 176 176 176 178 178 179 179 179 177 174 172 168 161 151 137 126 117 111 103 83 68 58 45 40 38
201 166 164 184 179 112 283 212 177 163 335 276 181 168 163 167 169 163 161 162 160 157 155 150 148 150 153 156 155 148 143 144 145 141 138 140 143 147 151 151 150 149 151 155 160 163 166 169 170 169 170 171 171 170 171 173 176 178 179 181 181 181 182 183 185 186 187 189 189 186 182 183 182 177 167 152 137 122 110 109 94 75 60 47 40 37